DELTA 1 DEB, 14565

Orbit data source: Space-Track

DELTA 1 DEB, 14565 is space debris in LEO originally from a launch on Thu, 14 Jul 1977 UTC launched from the Air Force Eastern Test Range (AFETR). Debris objects in space refer to the collection of defunct objects orbiting the Earth. Examples of debris include non-operational satellites, rocket bodies, and fragments generated from explosions, collisions, or faulty payload assembly.

Loading next visibility...
Identifier
14565, 1977-065FT
Orbit
LEO
Country
Flag of USUS
Related business
Manufacturer
Unknown
Mission
Spacecraft
Bus & Motor
Unknown
Mass
Unknown
Launch date (UTC)
1977-07-14 (48 years ago)
Launch vehicle
Unknown
Launch site
Air Force Eastern Test Range (AFETR)
Object type
Payload
Rocket body
Debris
Shape & HBR
Unknown shape, 0.1 m
Radar Cross Section
Small (<0.1 m²)

Expand to show TLE details & history
Last TLE update: 2 days ago

TLE from 2 days ago
0 DELTA 1 DEB
1 14565U 77065FT  25302.54327486 -.00001141  00000-0 -21108-2 0  9990
2 14565  29.2081 245.8751 0846689 168.8067 193.2626 12.49390751 13031
Epoch: 2025-10-29T13:02Z
TLE epoch observation values (Epoch: 2025-10-29T13:02:18.947Z)
Latitude
0.00001°
Longitude
12.18127°
Altitude
2,114.575 km
Speed
6.565 km/s
True Right ascension
16h 23m 30s
True Declination
0° 00' 00"
Sunlit
Object was in daylight at epoch
Visualization orbit readout
Latitude
Unknown
Longitude
Unknown
Altitude
Unknown
Speed
Unknown
Apparent Right ascension
Unknown
Apparent Declination
Unknown
Sunlit
N/A
Visualization observer readout
Local Sidereal Time
21:09:45
Azimuth
Unknown
Elevation
Unknown
Doppler factor
Unknown
Orbital elements
Apogee altitude
2,135.25 km
Perigee altitude
806.146 km
Semi-major axis
7,848.835 km
Eccentricity
0.08467
Inclination
29.2081°
RAAN
245.8751°
Arg. of periapsis
168.8067°
True anomaly
191.2457°
Mean anomaly
193.2626°
Eccentric anomaly
192.23457°
Mean motion
3.1213 °/min
Orbital period
115.34 mins
BSTAR
-0.0021108
Loading maneuver chart data...
Computing Atmospheric mass density...

Documentation

Showing up to 5 results
|